Year,Month,Day,Hour,Minute,Value (Times are PST for temperature in C)
2017,06,21,00,00,12.20
2017,06,21,00,02,12.20
2017,06,21,00,03,12.20
2017,06,21,00,04,12.20
2017,06,21,00,06,12.20
2017,06,21,00,07,12.20
2017,06,21,00,09,12.20
2017,06,21,00,10,12.20
2017,06,21,00,12,12.20
2017,06,21,00,13,12.20
2017,06,21,00,14,12.20
2017,06,21,00,16,12.20
2017,06,21,00,17,12.20
2017,06,21,00,18,12.20
2017,06,21,00,19,12.20
2017,06,21,00,21,12.20
2017,06,21,00,22,12.20
2017,06,21,00,23,12.20
2017,06,21,00,24,12.20
2017,06,21,00,26,12.20
2017,06,21,00,27,12.20
2017,06,21,00,28,12.20
2017,06,21,00,29,12.20
2017,06,21,00,31,12.10
2017,06,21,00,32,12.10
2017,06,21,00,33,12.10
2017,06,21,00,34,12.10
2017,06,21,00,36,12.10
2017,06,21,00,37,12.10
2017,06,21,00,38,12.10
2017,06,21,00,39,12.10
2017,06,21,00,41,12.00
2017,06,21,00,42,12.00
2017,06,21,00,43,12.00
2017,06,21,00,44,12.00
2017,06,21,00,46,12.00
2017,06,21,00,47,12.00
2017,06,21,00,48,12.00
2017,06,21,00,49,12.00
2017,06,21,00,51,12.00
2017,06,21,00,52,12.00
2017,06,21,00,53,12.00
2017,06,21,00,54,12.00
2017,06,21,00,56,12.00
2017,06,21,00,57,11.90
2017,06,21,00,58,11.90
2017,06,21,00,59,11.90
2017,06,21,01,01,11.90
2017,06,21,01,02,11.90
2017,06,21,01,03,11.90
2017,06,21,01,04,11.90
2017,06,21,01,06,11.90
2017,06,21,01,07,11.90
2017,06,21,01,08,11.90
2017,06,21,01,09,11.90
2017,06,21,01,11,11.90
2017,06,21,01,12,11.90
2017,06,21,01,13,11.90
2017,06,21,01,14,11.90
2017,06,21,01,16,11.90
2017,06,21,01,17,11.90
2017,06,21,01,18,11.90
2017,06,21,01,19,11.90
2017,06,21,01,21,11.90
2017,06,21,01,22,11.90
2017,06,21,01,23,11.90
2017,06,21,01,24,11.90
2017,06,21,01,25,11.90
2017,06,21,01,26,11.90
2017,06,21,01,27,11.90
2017,06,21,01,28,11.90
2017,06,21,01,29,11.90
2017,06,21,01,30,11.90
2017,06,21,01,31,11.90
2017,06,21,01,32,11.90
2017,06,21,01,33,11.90
2017,06,21,01,34,11.90
2017,06,21,01,35,11.90
2017,06,21,01,36,11.90
2017,06,21,01,37,11.90
2017,06,21,01,38,11.90
2017,06,21,01,39,11.90
2017,06,21,01,40,11.90
2017,06,21,01,41,11.90
2017,06,21,01,42,11.90
2017,06,21,01,43,11.80
2017,06,21,01,44,11.80
2017,06,21,01,45,11.80
2017,06,21,01,46,11.80
2017,06,21,01,47,11.80
2017,06,21,01,48,11.80
2017,06,21,01,49,11.80
2017,06,21,01,50,11.80
2017,06,21,01,51,11.80
2017,06,21,01,52,11.80
2017,06,21,01,53,11.80
2017,06,21,01,54,11.80
2017,06,21,01,55,11.80
2017,06,21,01,56,11.80
2017,06,21,01,57,11.80
2017,06,21,01,58,11.80
2017,06,21,01,59,11.80
2017,06,21,02,00,11.80
2017,06,21,02,01,11.80
2017,06,21,02,02,11.80
2017,06,21,02,03,11.80
2017,06,21,02,04,11.80
2017,06,21,02,05,11.80
2017,06,21,02,06,11.80
2017,06,21,02,07,11.80
2017,06,21,02,08,11.80
2017,06,21,02,09,11.80
2017,06,21,02,10,11.80
2017,06,21,02,11,11.80
2017,06,21,02,12,11.80
2017,06,21,02,13,11.80
2017,06,21,02,14,11.80
2017,06,21,02,15,11.80
2017,06,21,02,16,11.80
2017,06,21,02,17,11.80
2017,06,21,02,18,11.80
2017,06,21,02,19,11.80
2017,06,21,02,20,11.80
2017,06,21,02,21,11.80
2017,06,21,02,22,11.80
2017,06,21,02,23,11.80
2017,06,21,02,24,11.80
2017,06,21,02,25,11.80
2017,06,21,02,26,11.80
2017,06,21,02,27,11.80
2017,06,21,02,28,11.80
2017,06,21,02,29,11.80
2017,06,21,02,30,11.80
2017,06,21,02,31,11.80
2017,06,21,02,32,11.80
2017,06,21,02,33,11.80
2017,06,21,02,34,11.80
2017,06,21,02,35,11.80
2017,06,21,02,36,11.80
2017,06,21,02,38,11.80
2017,06,21,02,39,11.80
2017,06,21,02,41,11.80
2017,06,21,02,42,11.80
2017,06,21,02,43,11.80
2017,06,21,02,44,11.80
2017,06,21,02,46,11.80
2017,06,21,02,47,11.80
2017,06,21,02,48,11.80
2017,06,21,02,49,11.80
2017,06,21,02,51,11.80
2017,06,21,02,52,11.80
2017,06,21,02,53,11.80
2017,06,21,02,54,11.80
2017,06,21,02,56,11.80
2017,06,21,02,57,11.80
2017,06,21,02,58,11.80
2017,06,21,02,59,11.80
2017,06,21,03,01,11.70
2017,06,21,03,02,11.70
2017,06,21,03,03,11.70
2017,06,21,03,04,11.70
2017,06,21,03,06,11.70
2017,06,21,03,07,11.70
2017,06,21,03,08,11.70
2017,06,21,03,09,11.70
2017,06,21,03,11,11.70
2017,06,21,03,12,11.70
2017,06,21,03,13,11.70
2017,06,21,03,14,11.70
2017,06,21,03,16,11.70
2017,06,21,03,17,11.70
2017,06,21,03,18,11.70
2017,06,21,03,19,11.70
2017,06,21,03,21,11.70
2017,06,21,03,22,11.70
2017,06,21,03,23,11.70
2017,06,21,03,24,11.70
2017,06,21,03,26,11.70
2017,06,21,03,27,11.70
2017,06,21,03,28,11.70
2017,06,21,03,29,11.70
2017,06,21,03,31,11.70
2017,06,21,03,32,11.70
2017,06,21,03,33,11.70
2017,06,21,03,34,11.70
2017,06,21,03,36,11.70
2017,06,21,03,37,11.70
2017,06,21,03,38,11.70
2017,06,21,03,39,11.70
2017,06,21,03,41,11.70
2017,06,21,03,42,11.70
2017,06,21,03,43,11.70
2017,06,21,03,44,11.60
2017,06,21,03,46,11.60
2017,06,21,03,47,11.60
2017,06,21,03,48,11.60
2017,06,21,03,49,11.60
2017,06,21,03,51,11.60
2017,06,21,03,52,11.60
2017,06,21,03,53,11.60
2017,06,21,03,54,11.60
2017,06,21,03,56,11.60
2017,06,21,03,57,11.60
2017,06,21,03,58,11.60
2017,06,21,03,59,11.60
2017,06,21,04,01,11.60
2017,06,21,04,02,11.60
2017,06,21,04,03,11.60
2017,06,21,04,04,11.60
2017,06,21,04,06,11.60
2017,06,21,04,07,11.60
2017,06,21,04,08,11.60
2017,06,21,04,09,11.60
2017,06,21,04,10,11.60
2017,06,21,04,11,11.60
2017,06,21,04,12,11.60
2017,06,21,04,13,11.60
2017,06,21,04,14,11.60
2017,06,21,04,15,11.40
2017,06,21,04,16,11.40
2017,06,21,04,17,11.40
2017,06,21,04,18,11.40
2017,06,21,04,19,11.40
2017,06,21,04,20,11.40
2017,06,21,04,21,11.40
2017,06,21,04,22,11.40
2017,06,21,04,23,11.40
2017,06,21,04,24,11.40
2017,06,21,04,25,11.40
2017,06,21,04,26,11.40
2017,06,21,04,27,11.40
2017,06,21,04,28,11.40
2017,06,21,04,29,11.40
2017,06,21,04,30,11.40
2017,06,21,04,31,11.40
2017,06,21,04,32,11.40
2017,06,21,04,33,11.40
2017,06,21,04,34,11.40
2017,06,21,04,35,11.40
2017,06,21,04,36,11.40
2017,06,21,04,37,11.40
2017,06,21,04,38,11.40
2017,06,21,04,39,11.30
2017,06,21,04,40,11.30
2017,06,21,04,41,11.30
2017,06,21,04,42,11.30
2017,06,21,04,43,11.30
2017,06,21,04,44,11.30
2017,06,21,04,45,11.30
2017,06,21,04,46,11.30
2017,06,21,04,47,11.30
2017,06,21,04,48,11.30
2017,06,21,04,49,11.30
2017,06,21,04,50,11.30
2017,06,21,04,51,11.30
2017,06,21,04,52,11.30
2017,06,21,04,53,11.30
2017,06,21,04,54,11.30
2017,06,21,04,55,11.30
2017,06,21,04,56,11.20
2017,06,21,04,57,11.20
2017,06,21,04,58,11.20
2017,06,21,04,59,11.20
2017,06,21,05,00,11.20
2017,06,21,05,01,11.20
2017,06,21,05,02,11.20
2017,06,21,05,03,11.20
2017,06,21,05,04,11.20
2017,06,21,05,05,11.20
2017,06,21,05,06,11.20
2017,06,21,05,07,11.20
2017,06,21,05,08,11.20
2017,06,21,05,09,11.20
2017,06,21,05,10,11.20
2017,06,21,05,11,11.20
2017,06,21,05,12,11.10
2017,06,21,05,28,11.10
2017,06,21,05,29,11.10
2017,06,21,05,31,11.10
2017,06,21,05,32,11.10
2017,06,21,05,33,11.10
2017,06,21,05,34,11.10
2017,06,21,05,36,11.10
2017,06,21,05,37,11.10
2017,06,21,05,38,11.10
2017,06,21,05,39,11.10
2017,06,21,05,41,11.10
2017,06,21,05,42,11.10
2017,06,21,05,43,11.10
2017,06,21,05,44,11.10
2017,06,21,05,46,11.10
2017,06,21,05,47,11.10
2017,06,21,05,48,11.10
2017,06,21,05,49,11.10
2017,06,21,05,51,11.10
2017,06,21,05,52,11.10
2017,06,21,05,53,11.10
2017,06,21,05,54,11.20
2017,06,21,05,56,11.20
2017,06,21,05,57,11.20
2017,06,21,05,58,11.20
2017,06,21,05,59,11.20
2017,06,21,06,01,11.20
2017,06,21,06,02,11.20
2017,06,21,06,03,11.20
2017,06,21,06,04,11.30
2017,06,21,06,06,11.30
2017,06,21,06,07,11.30
2017,06,21,06,08,11.30
2017,06,21,06,09,11.30
2017,06,21,06,11,11.30
2017,06,21,06,12,11.30
2017,06,21,06,13,11.40
2017,06,21,06,14,11.40
2017,06,21,06,16,11.40
2017,06,21,06,17,11.40
2017,06,21,06,18,11.40
2017,06,21,06,19,11.40
2017,06,21,06,21,11.40
2017,06,21,06,22,11.40
2017,06,21,06,23,11.40
2017,06,21,06,24,11.40
2017,06,21,06,26,11.60
2017,06,21,06,27,11.60
2017,06,21,06,28,11.60
2017,06,21,06,29,11.60
2017,06,21,06,31,11.60
2017,06,21,06,32,11.60
2017,06,21,06,33,11.60
2017,06,21,06,34,11.60
2017,06,21,06,36,11.60
2017,06,21,06,37,11.70
2017,06,21,06,38,11.70
2017,06,21,06,39,11.70
2017,06,21,06,41,11.80
2017,06,21,06,42,11.80
2017,06,21,06,43,11.80
2017,06,21,06,44,11.80
2017,06,21,06,46,11.80
2017,06,21,06,47,11.80
2017,06,21,06,48,11.80
2017,06,21,06,49,11.80
2017,06,21,06,51,11.90
2017,06,21,06,52,11.90
2017,06,21,06,53,11.90
2017,06,21,06,54,11.90
2017,06,21,06,55,11.90
2017,06,21,06,56,12.00
2017,06,21,06,57,12.00
2017,06,21,06,58,12.00
2017,06,21,06,59,12.00
2017,06,21,07,00,12.00
2017,06,21,07,01,12.00
2017,06,21,07,02,12.10
2017,06,21,07,03,12.10
2017,06,21,07,04,12.10
2017,06,21,07,06,12.10
2017,06,21,07,07,12.20
2017,06,21,07,08,12.20
2017,06,21,07,09,12.20
2017,06,21,07,10,12.20
2017,06,21,07,11,12.30
2017,06,21,07,12,12.30
2017,06,21,07,13,12.30
2017,06,21,07,14,12.30
2017,06,21,07,15,12.30
2017,06,21,07,16,12.30
2017,06,21,07,17,12.30
2017,06,21,07,18,12.30
2017,06,21,07,19,12.40
2017,06,21,07,20,12.40
2017,06,21,07,21,12.40
2017,06,21,07,22,12.50
2017,06,21,07,23,12.50
2017,06,21,07,24,12.50
2017,06,21,07,25,12.60
2017,06,21,07,26,12.60
2017,06,21,07,27,12.60
2017,06,21,07,28,12.70
2017,06,21,08,28,14.80
2017,06,21,08,29,14.90
2017,06,21,08,30,14.90
2017,06,21,08,32,15.00
2017,06,21,08,33,15.10
2017,06,21,08,34,15.20
2017,06,21,08,36,15.30
2017,06,21,08,37,15.30
2017,06,21,08,38,15.50
2017,06,21,08,39,15.50
2017,06,21,08,41,15.70
2017,06,21,08,42,15.80
2017,06,21,08,43,15.80
2017,06,21,08,44,15.80
2017,06,21,08,46,15.80
2017,06,21,08,47,15.80
2017,06,21,08,48,15.90
2017,06,21,08,49,15.90
2017,06,21,08,51,16.10
2017,06,21,08,52,16.10
2017,06,21,08,53,16.10
2017,06,21,08,54,16.20
2017,06,21,08,56,16.20
2017,06,21,08,57,16.30
2017,06,21,08,58,16.30
2017,06,21,08,59,16.30
2017,06,21,09,01,16.30
2017,06,21,09,02,16.40
2017,06,21,09,03,16.40
2017,06,21,09,04,16.40
2017,06,21,09,06,16.40
2017,06,21,09,07,16.60
2017,06,21,09,08,16.70
2017,06,21,09,09,16.70
2017,06,21,09,11,16.60
2017,06,21,09,12,16.60
2017,06,21,09,13,16.40
2017,06,21,09,14,16.40
2017,06,21,09,16,16.40
2017,06,21,09,17,16.40
2017,06,21,09,18,16.40
2017,06,21,09,19,16.40
2017,06,21,09,21,16.40
2017,06,21,09,22,16.40
2017,06,21,09,23,16.40
2017,06,21,09,24,16.60
2017,06,21,09,26,16.60
2017,06,21,09,27,16.70
2017,06,21,09,28,16.70
2017,06,21,09,29,16.70
2017,06,21,09,31,16.70
2017,06,21,09,32,16.70
2017,06,21,09,33,16.70
2017,06,21,09,34,16.70
2017,06,21,09,36,16.70
2017,06,21,09,37,16.70
2017,06,21,09,38,16.70
2017,06,21,09,39,16.60
2017,06,21,09,41,16.60
2017,06,21,09,42,16.60
2017,06,21,09,43,16.60
2017,06,21,09,44,16.70
2017,06,21,09,46,16.70
2017,06,21,09,47,16.80
2017,06,21,09,48,16.80
2017,06,21,09,49,16.90
2017,06,21,09,51,17.10
2017,06,21,09,52,17.20
2017,06,21,09,53,17.30
2017,06,21,09,54,17.30
2017,06,21,09,56,17.50
2017,06,21,09,57,17.50
2017,06,21,09,58,17.60
2017,06,21,09,59,17.70
2017,06,21,10,01,17.80
2017,06,21,10,02,17.90
2017,06,21,10,03,17.90
2017,06,21,10,04,17.90
2017,06,21,10,06,18.20
2017,06,21,10,07,18.10
2017,06,21,10,08,18.10
2017,06,21,10,09,18.20
2017,06,21,10,10,18.20
2017,06,21,10,11,18.20
2017,06,21,10,12,18.20
2017,06,21,10,13,18.20
2017,06,21,10,14,18.30
2017,06,21,10,15,18.30
2017,06,21,10,16,18.30
2017,06,21,10,17,18.40
2017,06,21,10,18,18.40
2017,06,21,10,19,18.50
2017,06,21,10,20,18.50
2017,06,21,10,21,18.50
2017,06,21,10,22,18.40
2017,06,21,10,23,18.30
2017,06,21,10,24,18.30
2017,06,21,10,25,18.30
2017,06,21,10,26,18.30
2017,06,21,10,27,18.20
2017,06,21,10,28,18.20
2017,06,21,10,29,18.20
2017,06,21,10,30,18.20
2017,06,21,10,31,18.20
2017,06,21,10,32,18.20
2017,06,21,10,33,18.20
2017,06,21,10,34,18.20
2017,06,21,10,35,18.20
2017,06,21,10,36,18.30
2017,06,21,10,37,18.30
2017,06,21,10,38,18.40
2017,06,21,10,39,18.40
2017,06,21,10,40,18.50
2017,06,21,10,41,18.50
2017,06,21,10,42,18.60
2017,06,21,10,43,18.60
2017,06,21,10,44,18.60
2017,06,21,10,45,18.60
2017,06,21,10,46,18.60
2017,06,21,10,47,18.60
2017,06,21,10,48,18.60
2017,06,21,10,49,18.60
2017,06,21,10,50,18.70
2017,06,21,10,51,18.70
2017,06,21,10,52,18.80
2017,06,21,10,53,18.90
2017,06,21,10,54,18.90
2017,06,21,10,55,18.90
2017,06,21,10,56,18.90
2017,06,21,10,57,18.90
2017,06,21,10,58,18.90
2017,06,21,10,59,18.90
2017,06,21,11,00,18.80
2017,06,21,11,01,18.80
2017,06,21,11,02,18.70
2017,06,21,11,03,18.60
2017,06,21,11,04,18.60
2017,06,21,11,05,18.50
2017,06,21,11,06,18.50
2017,06,21,11,07,18.40
2017,06,21,11,08,18.40
2017,06,21,11,09,18.40
2017,06,21,11,10,18.30
2017,06,21,11,11,18.20
2017,06,21,11,12,18.20
2017,06,21,11,13,18.20
2017,06,21,11,14,18.10
2017,06,21,11,15,18.10
2017,06,21,11,16,18.10
2017,06,21,11,17,17.90
2017,06,21,11,18,17.90
2017,06,21,11,19,17.90
2017,06,21,11,21,18.10
2017,06,21,11,22,18.10
2017,06,21,11,23,18.20
2017,06,21,11,24,18.20
2017,06,21,11,26,18.20
2017,06,21,11,27,18.20
2017,06,21,11,28,18.20
2017,06,21,11,29,18.20
2017,06,21,11,31,18.30
2017,06,21,11,32,18.40
2017,06,21,11,33,18.50
2017,06,21,11,34,18.60
2017,06,21,11,36,18.70
2017,06,21,11,37,18.80
2017,06,21,11,38,18.90
2017,06,21,11,39,18.90
2017,06,21,11,41,19.10
2017,06,21,11,42,19.10
2017,06,21,11,43,19.10
2017,06,21,11,44,19.10
2017,06,21,11,46,19.10
2017,06,21,11,47,19.10
2017,06,21,11,48,19.10
2017,06,21,11,49,19.10
2017,06,21,11,51,19.10
2017,06,21,11,52,19.20
2017,06,21,11,53,19.10
2017,06,21,11,54,19.10
2017,06,21,11,56,19.10
2017,06,21,11,57,19.10
2017,06,21,11,58,19.10
2017,06,21,11,59,19.10
2017,06,21,12,01,18.90
2017,06,21,12,02,18.90
2017,06,21,12,03,18.90
2017,06,21,12,04,18.90
2017,06,21,12,28,18.60
2017,06,21,12,29,18.60
2017,06,21,12,30,18.60
2017,06,21,12,32,18.60
2017,06,21,12,34,18.50
2017,06,21,12,36,18.40
2017,06,21,12,37,18.30
2017,06,21,12,38,18.30
2017,06,21,12,39,18.30
2017,06,21,12,41,18.20
2017,06,21,12,42,18.20
2017,06,21,12,43,18.20
2017,06,21,12,44,18.20
2017,06,21,12,46,18.30
2017,06,21,12,47,18.40
2017,06,21,12,48,18.40
2017,06,21,12,49,18.50
2017,06,21,12,51,18.60
2017,06,21,12,52,18.70
2017,06,21,12,53,18.70
2017,06,21,12,54,18.80
2017,06,21,12,56,18.80
2017,06,21,12,57,18.90
2017,06,21,12,58,18.90
2017,06,21,12,59,18.90
2017,06,21,13,01,18.90
2017,06,21,13,02,18.90
2017,06,21,13,03,18.90
2017,06,21,13,04,18.90
2017,06,21,13,06,18.90
2017,06,21,13,07,19.10
2017,06,21,13,08,19.10
2017,06,21,13,09,18.90
2017,06,21,13,11,18.90
2017,06,21,13,12,18.90
2017,06,21,13,13,18.90
2017,06,21,13,14,18.90
2017,06,21,13,16,18.90
2017,06,21,13,17,19.10
2017,06,21,13,18,19.10
2017,06,21,13,19,19.10
2017,06,21,13,21,19.10
2017,06,21,13,22,19.10
2017,06,21,13,23,19.10
2017,06,21,13,24,19.10
2017,06,21,13,26,19.10
2017,06,21,13,27,19.10
2017,06,21,13,28,19.10
2017,06,21,13,29,19.10
2017,06,21,13,31,19.10
2017,06,21,13,32,19.20
2017,06,21,13,33,19.20
2017,06,21,13,34,19.20
2017,06,21,13,36,19.40
2017,06,21,13,37,19.40
2017,06,21,13,38,19.40
2017,06,21,13,39,19.40
2017,06,21,13,41,19.40
2017,06,21,13,42,19.40
2017,06,21,13,43,19.40
2017,06,21,13,44,19.40
2017,06,21,13,46,19.40
2017,06,21,13,47,19.40
2017,06,21,13,48,19.50
2017,06,21,13,49,19.50
2017,06,21,13,51,19.60
2017,06,21,13,52,19.60
2017,06,21,13,53,19.70
2017,06,21,13,54,19.70
2017,06,21,13,56,19.80
2017,06,21,13,57,19.80
2017,06,21,13,58,19.90
2017,06,21,13,59,19.90
2017,06,21,14,01,19.90
2017,06,21,14,02,20.10
2017,06,21,14,03,20.10
2017,06,21,14,04,20.10
2017,06,21,14,06,20.20
2017,06,21,14,07,20.20
2017,06,21,14,08,20.20
2017,06,21,14,09,20.20
2017,06,21,14,10,20.20
2017,06,21,14,11,20.20
2017,06,21,14,12,20.30
2017,06,21,14,13,20.20
2017,06,21,14,14,20.30
2017,06,21,14,15,20.30
2017,06,21,14,16,20.40
2017,06,21,14,17,20.40
2017,06,21,14,18,20.50
2017,06,21,14,19,20.50
2017,06,21,14,20,20.50
2017,06,21,14,21,20.50
2017,06,21,14,22,20.60
2017,06,21,14,23,20.60
2017,06,21,14,24,20.70
2017,06,21,14,25,20.80
2017,06,21,14,26,20.80
2017,06,21,14,27,20.90
2017,06,21,14,28,21.00
2017,06,21,14,29,21.00
2017,06,21,14,30,21.00
2017,06,21,14,31,20.90
2017,06,21,14,32,20.90
2017,06,21,14,33,20.80
2017,06,21,14,34,20.80
2017,06,21,14,35,20.80
2017,06,21,14,36,20.70
2017,06,21,14,37,20.70
2017,06,21,14,38,20.70
2017,06,21,14,39,20.60
2017,06,21,14,40,20.40
2017,06,21,14,41,20.20
2017,06,21,14,42,20.20
2017,06,21,14,43,19.90
2017,06,21,14,44,19.90
2017,06,21,14,45,19.80
2017,06,21,14,46,19.70
2017,06,21,14,47,19.70
2017,06,21,14,48,19.60
2017,06,21,14,49,19.60
2017,06,21,14,50,19.50
2017,06,21,14,51,19.50
2017,06,21,14,52,19.50
2017,06,21,14,53,19.50
2017,06,21,14,54,19.50
2017,06,21,14,55,19.50
2017,06,21,14,56,19.50
2017,06,21,14,57,19.60
2017,06,21,14,58,19.60
2017,06,21,14,59,19.60
2017,06,21,15,00,19.60
2017,06,21,15,01,19.60
2017,06,21,15,02,19.60
2017,06,21,15,03,19.60
2017,06,21,15,04,19.50
2017,06,21,15,05,19.40
2017,06,21,15,06,19.40
2017,06,21,15,07,19.30
2017,06,21,15,08,19.20
2017,06,21,15,09,19.20
2017,06,21,15,10,19.10
2017,06,21,15,11,19.10
2017,06,21,15,12,18.90
2017,06,21,15,13,18.90
2017,06,21,15,14,18.80
2017,06,21,15,15,18.70
2017,06,21,15,16,18.70
2017,06,21,15,17,18.60
2017,06,21,15,18,18.50
2017,06,21,15,19,18.40
2017,06,21,15,20,18.40
2017,06,21,15,22,18.30
2017,06,21,15,24,18.20
2017,06,21,15,26,18.20
2017,06,21,15,27,18.20
2017,06,21,15,28,18.20
2017,06,21,15,29,18.10
2017,06,21,15,31,18.10
2017,06,21,15,32,18.10
2017,06,21,15,33,18.10
2017,06,21,15,34,18.10
2017,06,21,15,36,18.10
2017,06,21,15,37,18.10
2017,06,21,15,38,18.10
2017,06,21,15,39,17.90
2017,06,21,15,41,17.90
2017,06,21,15,42,17.90
2017,06,21,15,43,17.90
2017,06,21,15,44,17.80
2017,06,21,15,46,17.80
2017,06,21,15,47,17.90
2017,06,21,15,48,17.90
2017,06,21,15,49,17.90
2017,06,21,15,51,18.20
2017,06,21,15,52,18.20
2017,06,21,15,53,18.20
2017,06,21,15,54,18.20
2017,06,21,15,56,18.30
2017,06,21,15,57,18.20
2017,06,21,15,58,18.20
2017,06,21,15,59,17.90
2017,06,21,16,01,17.80
2017,06,21,16,02,17.70
2017,06,21,16,03,17.60
2017,06,21,16,04,17.50
2017,06,21,16,06,17.30
2017,06,21,16,07,17.30
2017,06,21,16,08,17.30
2017,06,21,16,09,17.30
2017,06,21,16,11,17.40
2017,06,21,16,12,17.50
2017,06,21,16,13,17.60
2017,06,21,16,14,17.60
2017,06,21,16,16,17.80
2017,06,21,16,17,17.80
2017,06,21,16,18,17.80
2017,06,21,16,19,17.70
2017,06,21,16,21,17.60
2017,06,21,16,22,17.50
2017,06,21,16,23,17.50
2017,06,21,16,24,17.40
2017,06,21,16,26,17.40
2017,06,21,16,27,17.40
2017,06,21,16,28,17.40
2017,06,21,16,29,17.40
2017,06,21,16,31,17.40
2017,06,21,16,32,17.40
2017,06,21,16,33,17.40
2017,06,21,16,34,17.30
2017,06,21,16,36,17.40
2017,06,21,16,37,17.40
2017,06,21,16,38,17.30
2017,06,21,16,39,17.30
2017,06,21,16,41,17.40
2017,06,21,16,42,17.40
2017,06,21,16,43,17.50
2017,06,21,16,44,17.50
2017,06,21,16,46,17.60
2017,06,21,16,47,17.70
2017,06,21,16,48,17.70
2017,06,21,16,49,17.80
2017,06,21,16,50,17.80
2017,06,21,16,51,17.90
2017,06,21,16,52,17.90
2017,06,21,16,53,17.90
2017,06,21,16,54,17.90
2017,06,21,16,55,17.90
2017,06,21,16,56,17.90
2017,06,21,16,57,17.90
2017,06,21,16,58,17.90
2017,06,21,16,59,17.90
2017,06,21,17,00,17.90
2017,06,21,17,01,17.90
2017,06,21,17,02,17.90
2017,06,21,17,03,17.90
2017,06,21,17,04,17.90
2017,06,21,17,05,17.90
2017,06,21,17,06,17.90
2017,06,21,17,07,17.90
2017,06,21,17,08,17.90
2017,06,21,17,09,17.90
2017,06,21,17,10,17.90
2017,06,21,17,11,17.90
2017,06,21,17,12,17.90
2017,06,21,17,13,17.90
2017,06,21,17,14,17.90
2017,06,21,17,15,17.90
2017,06,21,17,16,17.90
2017,06,21,17,17,17.90
2017,06,21,17,18,17.90
2017,06,21,17,19,17.90
2017,06,21,17,20,17.90
2017,06,21,17,21,17.80
2017,06,21,17,22,17.80
2017,06,21,17,23,17.80
2017,06,21,17,24,17.70
2017,06,21,17,25,17.70
2017,06,21,17,26,17.70
2017,06,21,17,27,17.60
2017,06,21,17,28,17.70
2017,06,21,17,29,17.70
2017,06,21,17,30,17.70
2017,06,21,17,31,17.80
2017,06,21,17,32,17.80
2017,06,21,17,33,17.90
2017,06,21,17,34,17.90
2017,06,21,17,35,17.90
2017,06,21,17,36,17.90
2017,06,21,17,37,17.90
2017,06,21,17,38,17.90
2017,06,21,17,39,17.90
2017,06,21,17,40,18.10
2017,06,21,17,41,17.90
2017,06,21,17,42,17.90
2017,06,21,17,43,17.90
2017,06,21,17,44,17.90
2017,06,21,17,45,17.90
2017,06,21,17,46,17.90
2017,06,21,17,47,17.90
2017,06,21,17,48,17.90
2017,06,21,17,49,17.90
2017,06,21,17,50,17.90
2017,06,21,17,51,17.90
2017,06,21,17,52,18.10
2017,06,21,17,53,18.10
2017,06,21,17,54,18.10
2017,06,21,17,55,18.10
2017,06,21,17,56,18.10
2017,06,21,17,57,18.10
2017,06,21,17,58,18.20
2017,06,21,17,59,18.20
2017,06,21,18,00,18.20
2017,06,21,18,02,18.30
2017,06,21,18,03,18.30
2017,06,21,18,04,18.30
2017,06,21,18,06,18.30
2017,06,21,18,07,18.20
2017,06,21,18,08,18.20
2017,06,21,18,09,18.10
2017,06,21,18,11,17.90
2017,06,21,18,12,17.90
2017,06,21,18,13,17.80
2017,06,21,18,14,17.70
2017,06,21,18,16,17.80
2017,06,21,18,17,17.80
2017,06,21,18,18,17.90
2017,06,21,18,19,17.90
2017,06,21,18,21,18.10
2017,06,21,18,22,18.20
2017,06,21,18,23,18.20
2017,06,21,18,24,18.40
2017,06,21,18,26,18.60
2017,06,21,18,27,18.70
2017,06,21,18,28,18.80
2017,06,21,18,29,18.90
2017,06,21,18,31,18.90
2017,06,21,18,32,18.90
2017,06,21,18,33,18.90
2017,06,21,18,34,18.90
2017,06,21,18,36,19.10
2017,06,21,18,37,19.10
2017,06,21,18,38,19.30
2017,06,21,18,39,19.40
2017,06,21,18,41,19.60
2017,06,21,18,42,19.70
2017,06,21,18,43,19.80
2017,06,21,18,44,19.90
2017,06,21,18,46,20.10
2017,06,21,18,47,20.20
2017,06,21,18,48,20.20
2017,06,21,18,49,20.20
2017,06,21,19,28,19.90
2017,06,21,19,29,20.10
2017,06,21,19,30,20.10
2017,06,21,19,32,20.10
2017,06,21,19,33,20.10
2017,06,21,19,34,20.10
2017,06,21,19,36,20.10
2017,06,21,19,37,20.10
2017,06,21,19,38,20.20
2017,06,21,19,39,20.20
2017,06,21,19,41,20.10
2017,06,21,19,42,20.10
2017,06,21,19,43,20.10
2017,06,21,19,44,20.10
2017,06,21,19,46,19.90
2017,06,21,19,47,19.90
2017,06,21,19,48,19.90
2017,06,21,19,49,19.90
2017,06,21,19,51,19.80
2017,06,21,19,52,19.80
2017,06,21,19,53,19.70
2017,06,21,19,54,19.60
2017,06,21,19,56,19.40
2017,06,21,19,57,19.30
2017,06,21,19,58,19.20
2017,06,21,19,59,19.10
2017,06,21,20,01,18.90
2017,06,21,20,02,18.80
2017,06,21,20,03,18.70
2017,06,21,20,04,18.60
2017,06,21,20,06,18.40
2017,06,21,20,07,18.30
2017,06,21,20,08,18.30
2017,06,21,20,09,18.20
2017,06,21,20,11,18.20
2017,06,21,20,12,18.10
2017,06,21,20,13,17.90
2017,06,21,20,14,17.90
2017,06,21,20,16,17.80
2017,06,21,20,17,17.70
2017,06,21,20,18,17.70
2017,06,21,20,19,17.70
2017,06,21,20,21,17.60
2017,06,21,20,22,17.50
2017,06,21,20,23,17.50
2017,06,21,20,24,17.40
2017,06,21,20,26,17.40
2017,06,21,20,27,17.30
2017,06,21,20,28,17.30
2017,06,21,20,29,17.30
2017,06,21,20,31,17.20
2017,06,21,20,32,17.20
2017,06,21,20,33,17.10
2017,06,21,20,34,17.10
2017,06,21,20,36,17.00
2017,06,21,20,37,16.90
2017,06,21,20,38,16.90
2017,06,21,20,39,16.80
2017,06,21,20,41,16.70
2017,06,21,20,42,16.70
2017,06,21,20,43,16.70
2017,06,21,20,44,16.60
2017,06,21,20,46,16.40
2017,06,21,20,47,16.40
2017,06,21,20,48,16.40
2017,06,21,20,49,16.40
2017,06,21,20,51,16.30
2017,06,21,20,52,16.30
2017,06,21,20,53,16.30
2017,06,21,20,54,16.30
2017,06,21,20,55,16.20
2017,06,21,20,56,16.10
2017,06,21,20,57,16.10
2017,06,21,20,58,16.10
2017,06,21,20,59,15.90
2017,06,21,21,00,15.80
2017,06,21,21,01,15.80
2017,06,21,21,02,15.60
2017,06,21,21,03,15.50
2017,06,21,21,04,15.40
2017,06,21,21,06,15.30
2017,06,21,21,07,15.20
2017,06,21,21,08,15.10
2017,06,21,21,09,15.00
2017,06,21,21,10,14.90
2017,06,21,21,11,14.80
2017,06,21,21,12,14.80
2017,06,21,21,13,14.70
2017,06,21,21,14,14.70
2017,06,21,21,15,14.60
2017,06,21,21,16,14.60
2017,06,21,21,17,14.50
2017,06,21,21,18,14.50
2017,06,21,21,19,14.40
2017,06,21,21,20,14.40
2017,06,21,21,21,14.30
2017,06,21,21,22,14.30
2017,06,21,21,23,14.20
2017,06,21,21,24,14.20
2017,06,21,21,25,14.20
2017,06,21,21,26,14.20
2017,06,21,21,27,14.20
2017,06,21,21,28,14.10
2017,06,21,21,29,14.10
2017,06,21,21,30,14.00
2017,06,21,21,31,14.00
2017,06,21,21,32,14.00
2017,06,21,21,33,14.00
2017,06,21,21,34,13.90
2017,06,21,21,35,13.90
2017,06,21,21,36,13.90
2017,06,21,21,37,13.90
2017,06,21,21,38,13.90
2017,06,21,21,39,13.90
2017,06,21,21,40,13.90
2017,06,21,21,41,13.80
2017,06,21,21,42,13.80
2017,06,21,21,43,13.80
2017,06,21,21,44,13.80
2017,06,21,21,45,13.80
2017,06,21,21,46,13.80
2017,06,21,21,47,13.80
2017,06,21,21,48,13.70
2017,06,21,21,49,13.70
2017,06,21,21,50,13.70
2017,06,21,21,51,13.70
2017,06,21,21,52,13.70
2017,06,21,21,53,13.70
2017,06,21,21,54,13.70
2017,06,21,21,55,13.70
2017,06,21,21,56,13.70
2017,06,21,21,57,13.70
2017,06,21,21,58,13.70
2017,06,21,21,59,13.70
2017,06,21,22,00,13.60
2017,06,21,22,01,13.60
2017,06,21,22,02,13.60
2017,06,21,22,03,13.60
2017,06,21,22,04,13.60
2017,06,21,22,05,13.60
2017,06,21,22,06,13.60